QPF
0.00 0.00 0.00 0.00 0.00 0.00 0.00 0.00 0.00 0.00 0.00 0.00 0.00 0.00 0.00 0.01 0.01 0.01 0.01 0.01 0.01 0.01 0.01 0.02 0.05 0.06 0.06 0.06 0.09 0.13 0.17 0.22 0.22 0.21 0.20 0.18 0.18 0.15 0.14 0.13 0.11 0.09 0.06 0.05
0.00 0.00 0.00 0.00 0.00 0.00 0.00 0.00 0.00 0.00 0.00 0.00 0.00 0.00 0.00 0.00 0.01 0.01 0.01 0.01 0.01 0.02 0.02 0.03 0.06 0.07 0.07 0.07 0.09 0.14 0.16 0.20 0.24 0.27 0.26 0.21 0.19 0.19 0.20 0.17 0.11 0.08 0.07 0.05
0.00 0.00 0.00 0.00 0.00 0.00 0.00 0.00 0.00 0.00 0.00 0.00 0.00 0.00 0.00 0.00 0.00 0.01 0.01 0.01 0.02 0.03 0.02 0.03 0.04 0.06 0.07 0.09 0.10 0.11 0.12 0.15 0.20 0.23 0.25 0.20 0.18 0.17 0.17 0.14 0.11 0.07 0.07 0.07
0.00 0.00 0.00 0.00 0.00 0.00 0.00 0.00 0.00 0.00 0.00 0.00 0.00 0.00 0.00 0.00 0.00 0.00 0.01 0.01 0.02 0.03 0.03 0.04 0.04 0.05 0.04 0.05 0.07 0.07 0.10 0.14 0.17 0.20 0.20 0.17 0.15 0.11 0.08 0.07 0.07 0.07 0.07 0.07
0.00 0.00 0.00 0.00 0.00 0.00 0.00 0.00 0.00 0.00 0.00 0.00 0.00 0.00 0.00 0.00 0.00 0.00 0.00 0.01 0.02 0.04 0.05 0.05 0.04 0.04 0.03 0.03 0.04 0.06 0.09 0.10 0.11 0.13 0.14 0.15 0.14 0.12 0.09 0.09 0.10 0.08 0.07 0.06
0.00 0.00 0.00 0.00 0.00 0.00 0.00 0.00 0.00 0.00 0.00 0.00 0.00 0.00 0.00 0.00 0.00 0.00 0.01 0.02 0.04 0.05 0.05 0.04 0.04 0.03 0.02 0.03 0.04 0.05 0.07 0.07 0.09 0.09 0.10 0.12 0.14 0.13 0.12 0.10 0.09 0.09 0.07 0.06
0.00 0.00 0.00 0.00 0.00 0.00 0.00 0.00 0.00 0.00 0.00 0.00 0.00 0.00 0.00 0.00 0.00 0.01 0.02 0.05 0.08 0.05 0.04 0.04 0.02 0.01 0.01 0.02 0.04 0.06 0.06 0.05 0.06 0.06 0.08 0.11 0.13 0.11 0.10 0.08 0.07 0.06 0.06 0.04
0.00 0.00 0.00 0.00 0.00 0.00 0.00 0.00 0.00 0.00 0.00 0.00 0.00 0.00 0.00 0.00 0.00 0.01 0.02 0.03 0.03 0.03 0.03 0.03 0.02 0.02 0.01 0.01 0.04 0.07 0.08 0.05 0.04 0.04 0.06 0.08 0.10 0.09 0.09 0.08 0.06 0.05 0.05 0.05
0.00 0.00 0.00 0.00 0.00 0.00 0.00 0.00 0.00 0.00 0.00 0.00 0.00 0.00 0.00 0.00 0.00 0.00 0.01 0.01 0.01 0.01 0.02 0.03 0.03 0.03 0.02 0.04 0.06 0.04 0.04 0.05 0.06 0.08 0.10 0.10 0.09 0.08 0.06 0.05 0.04 0.05 0.04 0.05
0.00 0.00 0.00 0.00 0.00 0.00 0.00 0.00 0.00 0.00 0.00 0.00 0.00 0.00 0.00 0.00 0.00 0.00 0.00 0.01 0.01 0.01 0.02 0.05 0.05 0.03 0.03 0.04 0.04 0.03 0.03 0.05 0.06 0.06 0.09 0.10 0.08 0.06 0.05 0.05 0.03 0.03 0.03 0.03
0.00 0.00 0.00 0.00 0.00 0.00 0.00 0.00 0.00 0.00 0.00 0.00 0.00 0.00 0.00 0.00 0.00 0.00 0.00 0.00 0.01 0.01 0.04 0.07 0.04 0.06 0.05 0.02 0.02 0.03 0.03 0.03 0.03 0.03 0.04 0.06 0.07 0.06 0.04 0.04 0.04 0.03 0.03 0.04
0.00 0.00 0.00 0.00 0.00 0.00 0.00 0.00 0.00 0.00 0.00 0.00 0.00 0.00 0.00 0.00 0.00 0.00 0.00 0.00 0.00 0.01 0.02 0.02 0.02 0.04 0.04 0.05 0.04 0.02 0.01 0.01 0.02 0.03 0.05 0.05 0.06 0.05 0.04 0.04 0.04 0.03 0.03 0.03
0.00 0.00 0.00 0.00 0.00 0.00 0.00 0.00 0.00 0.00 0.00 0.00 0.00 0.00 0.00 0.00 0.00 0.00 0.00 0.00 0.00 0.00 0.01 0.01 0.02 0.02 0.03 0.04 0.04 0.03 0.02 0.02 0.01 0.02 0.02 0.03 0.03 0.02 0.03 0.04 0.05 0.04 0.03 0.04
0.00 0.00 0.00 0.00 0.00 0.00 0.00 0.00 0.00 0.00 0.00 0.00 0.00 0.00 0.00 0.00 0.00 0.00 0.00 0.00 0.00 0.00 0.01 0.02 0.01 0.01 0.01 0.01 0.01 0.01 0.01 0.02 0.01 0.02 0.02 0.01 0.02 0.02 0.03 0.04 0.06 0.05 0.04 0.04
0.00 0.00 0.00 0.00 0.00 0.00 0.00 0.00 0.00 0.00 0.00 0.00 0.00 0.00 0.00 0.00 0.00 0.00 0.00 0.00 0.00 0.00 0.01 0.01 0.01 0.01 0.01 0.00 0.00 0.01 0.00 0.01 0.01 0.01 0.01 0.01 0.02 0.02 0.02 0.03 0.04 0.06 0.05 0.04
0.00 0.00 0.00 0.00 0.00 0.00 0.00 0.00 0.00 0.00 0.00 0.00 0.00 0.00 0.00 0.00 0.00 0.00 0.00 0.00 0.00 0.00 0.01 0.01 0.01 0.01 0.01 0.01 0.01 0.01 0.01 0.01 0.01 0.01 0.01 0.01 0.02 0.03 0.03 0.03 0.04 0.06 0.07 0.06
0.00 0.00 0.00 0.00 0.00 0.00 0.00 0.00 0.00 0.00 0.00 0.00 0.00 0.00 0.00 0.00 0.00 0.00 0.00 0.00 0.01 0.01 0.01 0.01 0.02 0.02 0.02 0.02 0.02 0.01 0.01 0.01 0.03 0.03 0.03 0.03 0.04 0.04 0.03 0.04 0.04 0.04 0.06 0.06
0.00 0.00 0.00 0.00 0.00 0.00 0.00 0.00 0.00 0.00 0.00 0.00 0.00 0.00 0.00 0.00 0.00 0.00 0.00 0.00 0.01 0.01 0.01 0.03 0.04 0.04 0.03 0.03 0.03 0.03 0.02 0.03 0.06 0.06 0.04 0.03 0.04 0.03 0.03 0.03 0.03 0.03 0.03 0.03
0.00 0.00 0.00 0.00 0.00 0.00 0.00 0.00 0.00 0.00 0.00 0.00 0.00 0.00 0.00 0.00 0.00 0.00 0.00 0.00 0.00 0.01 0.03 0.04 0.06 0.06 0.04 0.04 0.04 0.04 0.03 0.04 0.05 0.05 0.05 0.03 0.03 0.03 0.03 0.03 0.03 0.02 0.02 0.02
0.00 0.00 0.00 0.00 0.00 0.00 0.00 0.00 0.00 0.00 0.00 0.00 0.00 0.00 0.00 0.00 0.00 0.00 0.00 0.00 0.00 0.02 0.03 0.04 0.06 0.07 0.07 0.07 0.06 0.04 0.04 0.04 0.05 0.05 0.05 0.03 0.02 0.03 0.04 0.06 0.06 0.04 0.04 0.04
0.00 0.00 0.00 0.00 0.00 0.00 0.00 0.00 0.01 0.02 0.01 0.01 0.01 0.01 0.01 0.01 0.00 0.00 0.01 0.01 0.02 0.03 0.04 0.05 0.06 0.06 0.06 0.07 0.07 0.06 0.05 0.05 0.06 0.05 0.05 0.04 0.03 0.04 0.05 0.07 0.07 0.07 0.06 0.06
0.00 0.00 0.00 0.00 0.00 0.00 0.00 0.00 0.01 0.01 0.02 0.02 0.03 0.03 0.02 0.02 0.01 0.02 0.02 0.02 0.03 0.04 0.04 0.05 0.05 0.05 0.05 0.07 0.09 0.08 0.06 0.05 0.06 0.07 0.07 0.06 0.05 0.05 0.05 0.05 0.06 0.06 0.06 0.06
0.00 0.00 0.00 0.00 0.00 0.00 0.00 0.00 0.00 0.01 0.02 0.03 0.04 0.04 0.04 0.03 0.03 0.03 0.04 0.05 0.05 0.05 0.05 0.04 0.04 0.05 0.05 0.04 0.05 0.07 0.07 0.07 0.05 0.03 0.03 0.03 0.03 0.03 0.04 0.05 0.05 0.05 0.04 0.04
0.00 0.00 0.00 0.01 0.01 0.01 0.01 0.01 0.01 0.02 0.02 0.02 0.04 0.05 0.05 0.06 0.06 0.06 0.06 0.07 0.07 0.07 0.06 0.06 0.06 0.05 0.04 0.03 0.03 0.03 0.04 0.03 0.03 0.01 0.01 0.01 0.02 0.02 0.02 0.03 0.03 0.04 0.03 0.03
0.00 0.01 0.01 0.02 0.02 0.02 0.02 0.02 0.02 0.02 0.02 0.03 0.04 0.05 0.06 0.06 0.06 0.07 0.08 0.09 0.09 0.10 0.09 0.08 0.07 0.06 0.06 0.05 0.03 0.03 0.03 0.02 0.02 0.02 0.02 0.02 0.02 0.02 0.02 0.02 0.02 0.02 0.02 0.03
0.00 0.00 0.01 0.02 0.03 0.03 0.03 0.03 0.03 0.03 0.04 0.04 0.04 0.04 0.05 0.06 0.06 0.07 0.07 0.08 0.08 0.07 0.07 0.08 0.08 0.08 0.10 0.09 0.05 0.03 0.02 0.02 0.02 0.03 0.03 0.04 0.03 0.03 0.03 0.02 0.02 0.03 0.03 0.04
MSLP
1012.92 1013.73 1014.38 1014.83 1015.09 1015.19 1015.15 1014.99 1014.72 1014.37 1013.93 1013.42 1012.86 1012.28 1011.74 1011.27 1010.93 1010.72 1010.68 1010.77 1010.97 1011.24 1011.55 1011.87 1012.18 1012.50 1012.83 1013.21 1013.64 1014.14 1014.69 1015.27 1015.84 1016.35 1016.77 1017.08 1017.29 1017.41 1017.48 1017.55 1017.64 1017.80 1018.03 1018.33
1013.53 1014.18 1014.65 1014.94 1015.11 1015.18 1015.20 1015.16 1015.07 1014.89 1014.60 1014.19 1013.65 1013.02 1012.35 1011.71 1011.18 1010.81 1010.64 1010.66 1010.84 1011.14 1011.50 1011.87 1012.22 1012.53 1012.84 1013.15 1013.51 1013.94 1014.45 1015.02 1015.60 1016.16 1016.65 1017.03 1017.28 1017.42 1017.47 1017.48 1017.51 1017.59 1017.77 1018.04
1013.92 1014.36 1014.64 1014.78 1014.87 1014.95 1015.05 1015.19 1015.30 1015.34 1015.23 1014.94 1014.44 1013.76 1012.97 1012.16 1011.45 1010.91 1010.61 1010.55 1010.72 1011.04 1011.46 1011.89 1012.28 1012.61 1012.89 1013.15 1013.44 1013.79 1014.24 1014.77 1015.36 1015.95 1016.48 1016.92 1017.23 1017.39 1017.44 1017.43 1017.41 1017.43 1017.55 1017.78
1014.05 1014.30 1014.39 1014.41 1014.45 1014.58 1014.82 1015.15 1015.51 1015.79 1015.88 1015.72 1015.26 1014.54 1013.63 1012.66 1011.75 1011.03 1010.59 1010.44 1010.58 1010.93 1011.40 1011.89 1012.34 1012.69 1012.96 1013.18 1013.39 1013.67 1014.04 1014.52 1015.08 1015.68 1016.26 1016.74 1017.10 1017.30 1017.37 1017.36 1017.32 1017.31 1017.39 1017.57
1013.97 1014.03 1013.98 1013.92 1013.96 1014.18 1014.59 1015.16 1015.77 1016.29 1016.59 1016.55 1016.14 1015.37 1014.34 1013.19 1012.09 1011.18 1010.58 1010.33 1010.42 1010.78 1011.30 1011.85 1012.36 1012.75 1013.02 1013.21 1013.36 1013.56 1013.85 1014.26 1014.78 1015.36 1015.95 1016.47 1016.88 1017.14 1017.25 1017.26 1017.23 1017.21 1017.25 1017.41
1013.74 1013.65 1013.50 1013.41 1013.50 1013.86 1014.47 1015.27 1016.14 1016.89 1017.37 1017.44 1017.06 1016.24 1015.08 1013.75 1012.45 1011.35 1010.59 1010.23 1010.26 1010.60 1011.15 1011.76 1012.32 1012.76 1013.05 1013.22 1013.33 1013.45 1013.66 1013.99 1014.44 1014.99 1015.57 1016.11 1016.56 1016.88 1017.05 1017.11 1017.11 1017.10 1017.14 1017.27
1013.44 1013.24 1013.04 1012.97 1013.16 1013.67 1014.48 1015.51 1016.60 1017.55 1018.17 1018.32 1017.94 1017.06 1015.78 1014.29 1012.80 1011.53 1010.61 1010.12 1010.08 1010.40 1010.96 1011.62 1012.23 1012.72 1013.04 1013.21 1013.29 1013.35 1013.48 1013.73 1014.11 1014.60 1015.14 1015.69 1016.17 1016.53 1016.77 1016.89 1016.94 1016.97 1017.02 1017.15
1013.12 1012.87 1012.66 1012.66 1012.96 1013.62 1014.61 1015.82 1017.08 1018.17 1018.88 1019.08 1018.69 1017.75 1016.37 1014.74 1013.11 1011.68 1010.63 1010.04 1009.92 1010.20 1010.76 1011.44 1012.10 1012.63 1012.99 1013.17 1013.24 1013.27 1013.34 1013.51 1013.80 1014.22 1014.72 1015.24 1015.73 1016.13 1016.42 1016.60 1016.71 1016.79 1016.87 1017.00
1012.82 1012.56 1012.39 1012.46 1012.88 1013.66 1014.79 1016.12 1017.47 1018.62 1019.38 1019.58 1019.17 1018.18 1016.73 1015.03 1013.30 1011.78 1010.63 1009.96 1009.78 1010.02 1010.56 1011.25 1011.94 1012.51 1012.91 1013.12 1013.21 1013.22 1013.24 1013.35 1013.57 1013.92 1014.35 1014.83 1015.30 1015.71 1016.03 1016.27 1016.43 1016.55 1016.67 1016.81
1012.57 1012.32 1012.21 1012.37 1012.87 1013.74 1014.92 1016.28 1017.64 1018.78 1019.51 1019.68 1019.25 1018.24 1016.79 1015.07 1013.33 1011.79 1010.61 1009.90 1009.68 1009.88 1010.40 1011.08 1011.78 1012.38 1012.82 1013.07 1013.18 1013.20 1013.21 1013.28 1013.44 1013.71 1014.08 1014.49 1014.92 1015.31 1015.64 1015.90 1016.10 1016.26 1016.41 1016.57
1012.36 1012.16 1012.12 1012.34 1012.88 1013.76 1014.91 1016.21 1017.48 1018.53 1019.17 1019.29 1018.84 1017.86 1016.46 1014.82 1013.17 1011.69 1010.56 1009.87 1009.64 1009.81 1010.30 1010.95 1011.64 1012.24 1012.71 1013.01 1013.16 1013.22 1013.24 1013.29 1013.42 1013.63 1013.92 1014.27 1014.63 1014.98 1015.29 1015.55 1015.76 1015.94 1016.11 1016.28
1012.20 1012.06 1012.08 1012.33 1012.87 1013.69 1014.73 1015.88 1016.98 1017.85 1018.37 1018.42 1017.96 1017.05 1015.77 1014.29 1012.81 1011.49 1010.48 1009.86 1009.65 1009.80 1010.25 1010.85 1011.50 1012.10 1012.58 1012.91 1013.12 1013.23 1013.29 1013.36 1013.47 1013.65 1013.88 1014.15 1014.44 1014.73 1014.99 1015.22 1015.42 1015.60 1015.77 1015.95
1012.10 1012.03 1012.10 1012.36 1012.84 1013.54 1014.39 1015.31 1016.16 1016.82 1017.17 1017.13 1016.69 1015.88 1014.79 1013.54 1012.30 1011.21 1010.37 1009.87 1009.70 1009.85 1010.24 1010.78 1011.37 1011.93 1012.40 1012.76 1013.01 1013.19 1013.31 1013.43 1013.56 1013.72 1013.91 1014.12 1014.34 1014.56 1014.76 1014.94 1015.11 1015.27 1015.44 1015.61
1012.08 1012.08 1012.19 1012.42 1012.81 1013.33 1013.94 1014.58 1015.14 1015.55 1015.71 1015.59 1015.17 1014.49 1013.61 1012.65 1011.70 1010.87 1010.26 1009.89 1009.80 1009.94 1010.27 1010.72 1011.22 1011.71 1012.15 1012.52 1012.82 1013.06 1013.26 1013.44 1013.61 1013.79 1013.97 1014.14 1014.30 1014.45 1014.60 1014.73 1014.86 1014.99 1015.14 1015.30
1012.16 1012.23 1012.35 1012.55 1012.81 1013.13 1013.48 1013.81 1014.06 1014.20 1014.18 1013.97 1013.58 1013.03 1012.39 1011.71 1011.07 1010.53 1010.15 1009.94 1009.91 1010.04 1010.30 1010.65 1011.04 1011.44 1011.83 1012.19 1012.52 1012.83 1013.10 1013.36 1013.59 1013.81 1013.99 1014.15 1014.28 1014.39 1014.49 1014.58 1014.68 1014.79 1014.91 1015.06
1012.35 1012.46 1012.59 1012.73 1012.86 1012.97 1013.06 1013.09 1013.05 1012.93 1012.72 1012.43 1012.07 1011.66 1011.24 1010.84 1010.49 1010.23 1010.06 1009.99 1010.03 1010.14 1010.33 1010.57 1010.84 1011.14 1011.46 1011.80 1012.14 1012.49 1012.84 1013.17 1013.48 1013.74 1013.96 1014.13 1014.26 1014.35 1014.42 1014.49 1014.57 1014.67 1014.78 1014.92
1012.61 1012.75 1012.87 1012.94 1012.95 1012.87 1012.72 1012.48 1012.19 1011.84 1011.48 1011.12 1010.78 1010.49 1010.26 1010.10 1010.01 1009.98 1010.00 1010.06 1010.15 1010.25 1010.37 1010.50 1010.66 1010.85 1011.09 1011.38 1011.72 1012.10 1012.50 1012.90 1013.27 1013.60 1013.86 1014.06 1014.21 1014.31 1014.38 1014.46 1014.54 1014.64 1014.76 1014.90
1012.88 1013.03 1013.12 1013.13 1013.02 1012.79 1012.45 1012.01 1011.51 1010.99 1010.51 1010.09 1009.77 1009.58 1009.50 1009.53 1009.64 1009.80 1009.98 1010.15 1010.28 1010.37 1010.43 1010.48 1010.54 1010.64 1010.80 1011.05 1011.36 1011.75 1012.18 1012.62 1013.04 1013.41 1013.72 1013.95 1014.13 1014.26 1014.36 1014.46 1014.58 1014.70 1014.85 1015.00
1013.08 1013.20 1013.25 1013.19 1013.00 1012.66 1012.19 1011.61 1010.98 1010.36 1009.80 1009.36 1009.06 1008.93 1008.97 1009.14 1009.40 1009.71 1010.00 1010.25 1010.43 1010.53 1010.56 1010.56 1010.55 1010.58 1010.69 1010.88 1011.16 1011.53 1011.96 1012.40 1012.84 1013.23 1013.57 1013.83 1014.04 1014.21 1014.36 1014.50 1014.66 1014.83 1015.01 1015.20
1013.14 1013.20 1013.19 1013.07 1012.81 1012.41 1011.87 1011.23 1010.55 1009.89 1009.31 1008.87 1008.60 1008.53 1008.64 1008.91 1009.27 1009.68 1010.06 1010.38 1010.61 1010.74 1010.78 1010.77 1010.74 1010.74 1010.80 1010.95 1011.20 1011.53 1011.92 1012.34 1012.75 1013.13 1013.46 1013.74 1013.97 1014.17 1014.36 1014.55 1014.76 1014.98 1015.22 1015.45
1013.00 1012.96 1012.88 1012.71 1012.41 1011.99 1011.45 1010.83 1010.16 1009.52 1008.97 1008.57 1008.35 1008.33 1008.49 1008.81 1009.24 1009.71 1010.16 1010.55 1010.84 1011.03 1011.11 1011.13 1011.13 1011.13 1011.19 1011.31 1011.51 1011.79 1012.11 1012.47 1012.82 1013.15 1013.44 1013.70 1013.93 1014.14 1014.36 1014.60 1014.86 1015.14 1015.42 1015.70
1012.65 1012.51 1012.35 1012.13 1011.82 1011.43 1010.93 1010.37 1009.79 1009.23 1008.76 1008.42 1008.26 1008.28 1008.48 1008.84 1009.30 1009.81 1010.31 1010.76 1011.12 1011.39 1011.56 1011.65 1011.71 1011.75 1011.82 1011.93 1012.09 1012.30 1012.54 1012.80 1013.06 1013.30 1013.52 1013.72 1013.92 1014.13 1014.36 1014.63 1014.93 1015.25 1015.59 1015.92
1012.16 1011.90 1011.66 1011.41 1011.11 1010.77 1010.36 1009.91 1009.45 1009.01 1008.65 1008.40 1008.30 1008.37 1008.59 1008.97 1009.44 1009.97 1010.52 1011.02 1011.47 1011.82 1012.09 1012.28 1012.43 1012.53 1012.63 1012.74 1012.86 1013.00 1013.14 1013.29 1013.43 1013.56 1013.68 1013.81 1013.95 1014.13 1014.36 1014.63 1014.96 1015.32 1015.70 1016.08
1011.60 1011.24 1010.94 1010.66 1010.39 1010.11 1009.81 1009.49 1009.17 1008.88 1008.65 1008.50 1008.48 1008.58 1008.83 1009.21 1009.68 1010.22 1010.79 1011.34 1011.85 1012.30 1012.68 1012.97 1013.21 1013.39 1013.53 1013.64 1013.72 1013.79 1013.84 1013.87 1013.88 1013.89 1013.90 1013.94 1014.01 1014.15 1014.35 1014.62 1014.95 1015.34 1015.75 1016.16
1011.09 1010.66 1010.30 1010.01 1009.77 1009.56 1009.37 1009.19 1009.02 1008.87 1008.77 1008.73 1008.78 1008.93 1009.19 1009.56 1010.03 1010.56 1011.13 1011.71 1012.28 1012.80 1013.25 1013.65 1013.96 1014.21 1014.38 1014.50 1014.55 1014.55 1014.51 1014.43 1014.33 1014.22 1014.13 1014.08 1014.09 1014.17 1014.34 1014.59 1014.92 1015.32 1015.75 1016.19
1010.72 1010.24 1009.85 1009.55 1009.34 1009.20 1009.10 1009.04 1009.01 1008.99 1009.01 1009.07 1009.19 1009.38 1009.65 1010.02 1010.46 1010.98 1011.54 1012.12 1012.71 1013.27 1013.79 1014.24 1014.61 1014.90 1015.10 1015.21 1015.24 1015.18 1015.06 1014.89 1014.70 1014.50 1014.33 1014.21 1014.16 1014.20 1014.34 1014.57 1014.90 1015.29 1015.73 1016.19
Thickness
5802 5786 5775 5780 5784 5787 5784 5777 5771 5782 5800 5795 5791 5791 5798 5804 5803 5799 5796 5794 5791 5790 5791 5787 5782 5778 5773 5768 5763 5758 5753 5750 5745 5741 5737 5734 5734 5734 5735 5736 5737 5738 5738 5738
5781 5776 5788 5793 5791 5787 5782 5774 5773 5783 5798 5794 5787 5788 5796 5800 5800 5801 5798 5794 5793 5789 5786 5785 5782 5777 5773 5768 5764 5758 5754 5750 5747 5744 5740 5738 5736 5734 5735 5736 5737 5738 5738 5738
5775 5784 5798 5792 5787 5782 5779 5774 5776 5777 5786 5788 5784 5777 5786 5796 5800 5801 5800 5798 5795 5791 5786 5783 5780 5776 5773 5768 5765 5761 5756 5752 5748 5745 5741 5737 5734 5733 5732 5734 5735 5737 5738 5738
5778 5789 5793 5788 5784 5782 5770 5786 5784 5780 5770 5759 5771 5751 5774 5783 5787 5793 5796 5796 5794 5792 5788 5784 5780 5775 5772 5770 5766 5762 5758 5753 5749 5745 5741 5737 5734 5731 5733 5735 5735 5736 5737 5737
5775 5787 5788 5784 5788 5788 5783 5791 5785 5778 5768 5755 5759 5750 5759 5776 5780 5788 5794 5796 5795 5793 5789 5783 5780 5776 5774 5770 5765 5761 5757 5753 5750 5746 5742 5739 5736 5735 5735 5735 5735 5735 5736 5737
5781 5793 5795 5793 5799 5798 5793 5781 5769 5756 5747 5737 5752 5747 5750 5766 5780 5788 5794 5796 5796 5793 5790 5784 5779 5775 5771 5768 5764 5759 5755 5752 5750 5747 5744 5740 5738 5736 5735 5734 5733 5733 5734 5735
5771 5782 5795 5800 5789 5790 5783 5755 5730 5730 5720 5727 5746 5745 5751 5782 5791 5794 5795 5796 5796 5793 5787 5781 5776 5772 5769 5765 5762 5758 5754 5752 5750 5747 5744 5742 5740 5738 5736 5735 5734 5733 5733 5734
5750 5753 5782 5792 5786 5775 5772 5758 5729 5719 5716 5723 5740 5741 5765 5791 5797 5801 5801 5799 5795 5791 5787 5782 5777 5773 5769 5766 5762 5758 5755 5752 5751 5748 5745 5743 5741 5739 5737 5737 5736 5735 5735 5735
5743 5751 5783 5794 5796 5784 5763 5755 5755 5729 5723 5719 5729 5747 5771 5793 5794 5795 5795 5794 5791 5789 5786 5782 5777 5773 5769 5765 5761 5759 5755 5752 5750 5747 5745 5743 5741 5739 5738 5737 5736 5735 5735 5735
5757 5752 5772 5786 5790 5785 5777 5758 5738 5724 5709 5710 5727 5737 5749 5776 5784 5788 5789 5788 5788 5788 5784 5781 5778 5774 5770 5766 5762 5759 5756 5752 5749 5747 5745 5743 5741 5740 5739 5737 5736 5736 5735 5735
5760 5749 5758 5768 5771 5766 5761 5754 5739 5723 5723 5709 5710 5732 5773 5779 5787 5787 5788 5789 5788 5786 5784 5781 5778 5774 5770 5766 5762 5758 5755 5752 5749 5747 5745 5742 5741 5740 5739 5737 5736 5735 5735 5734
5756 5742 5735 5751 5774 5780 5773 5758 5743 5732 5723 5716 5715 5736 5788 5787 5790 5790 5789 5789 5787 5786 5783 5781 5777 5773 5769 5764 5760 5756 5754 5751 5749 5747 5744 5742 5740 5738 5737 5736 5735 5734 5733 5733
5750 5735 5724 5732 5749 5765 5765 5758 5752 5738 5720 5709 5714 5742 5785 5786 5787 5789 5789 5788 5786 5783 5780 5777 5775 5771 5767 5763 5759 5755 5752 5750 5748 5746 5744 5741 5738 5737 5735 5734 5733 5732 5731 5730
5756 5733 5730 5727 5737 5754 5758 5756 5748 5741 5722 5715 5726 5748 5772 5777 5781 5785 5787 5787 5785 5782 5779 5775 5772 5768 5765 5761 5758 5755 5752 5750 5748 5745 5742 5739 5737 5735 5733 5731 5730 5729 5728 5726
5748 5733 5738 5746 5756 5759 5763 5760 5751 5749 5743 5736 5745 5749 5769 5779 5783 5786 5787 5785 5782 5779 5777 5774 5770 5766 5762 5758 5755 5753 5750 5748 5746 5742 5739 5737 5735 5733 5730 5728 5727 5725 5724 5723
5733 5732 5736 5743 5751 5754 5755 5759 5756 5757 5753 5752 5756 5758 5779 5783 5784 5784 5784 5782 5780 5778 5777 5774 5770 5766 5761 5758 5754 5751 5748 5746 5743 5739 5736 5734 5731 5729 5726 5725 5723 5721 5719 5718
5719 5722 5718 5720 5741 5744 5735 5752 5755 5759 5761 5758 5754 5767 5778 5777 5779 5781 5782 5782 5781 5780 5777 5773 5770 5766 5762 5758 5754 5750 5747 5743 5740 5736 5733 5730 5728 5725 5723 5721 5718 5716 5713 5712
5712 5708 5701 5706 5721 5710 5736 5760 5763 5760 5761 5763 5766 5771 5773 5776 5779 5781 5782 5782 5781 5780 5777 5773 5769 5764 5759 5756 5752 5749 5744 5740 5736 5733 5730 5727 5724 5721 5718 5715 5713 5710 5708 5707
5710 5705 5693 5690 5698 5712 5736 5753 5755 5753 5753 5763 5763 5765 5768 5771 5773 5774 5779 5780 5780 5779 5776 5772 5768 5763 5757 5752 5749 5745 5740 5735 5731 5727 5725 5722 5720 5717 5713 5709 5707 5705 5702 5700
5698 5699 5689 5684 5692 5693 5725 5751 5759 5754 5741 5760 5760 5759 5760 5763 5753 5762 5773 5774 5773 5772 5769 5766 5762 5757 5752 5748 5745 5740 5734 5729 5726 5723 5719 5716 5714 5712 5708 5704 5701 5698 5696 5693
5683 5682 5681 5679 5686 5697 5727 5741 5749 5726 5733 5754 5754 5754 5754 5753 5754 5760 5765 5764 5764 5762 5760 5758 5754 5749 5745 5741 5738 5732 5727 5723 5721 5718 5714 5711 5708 5706 5702 5698 5695 5692 5689 5685
5672 5670 5670 5669 5676 5688 5725 5729 5728 5730 5743 5746 5747 5748 5747 5747 5748 5751 5753 5752 5752 5752 5750 5748 5744 5739 5736 5734 5730 5725 5720 5717 5715 5712 5709 5704 5700 5699 5696 5692 5688 5685 5681 5677
5664 5670 5670 5676 5683 5701 5712 5718 5726 5731 5733 5737 5739 5741 5740 5738 5738 5739 5739 5739 5739 5738 5737 5735 5733 5728 5725 5723 5721 5717 5713 5709 5707 5704 5699 5695 5692 5690 5688 5685 5681 5677 5673 5670
5659 5664 5667 5672 5685 5695 5703 5711 5718 5724 5727 5730 5733 5733 5733 5730 5729 5728 5728 5727 5726 5725 5723 5722 5720 5716 5713 5712 5710 5707 5703 5701 5698 5695 5691 5687 5684 5681 5679 5676 5673 5670 5666 5663
5651 5655 5658 5664 5677 5686 5695 5700 5707 5712 5716 5718 5721 5723 5722 5721 5718 5717 5716 5715 5714 5713 5710 5708 5707 5705 5702 5700 5697 5695 5693 5691 5688 5685 5681 5678 5675 5672 5669 5666 5663 5661 5658 5656
5640 5646 5650 5656 5669 5672 5680 5690 5697 5699 5702 5705 5707 5707 5708 5708 5707 5706 5703 5702 5702 5701 5699 5696 5696 5694 5691 5689 5687 5685 5683 5681 5678 5675 5672 5669 5666 5662 5660 5656 5651 5648 5647 5644